IBE05FF LPMA-LEMD

Flight info

Callsign IBE05FF
Flight time 1h 54m
Altitude 37000
Route DEGUN DCT NARTA DCT PORTA DCT OGERO Z409 TLD
Aircraft A320/M-SDE3FGHIRWY/LB1

Departure

Time 2026-05-06 16:54
Airport Cristiano Ronaldo International Airport (LPMA)

Arrival

Time 2026-05-06 18:48
Airport Adolfo Suárez Madrid–Barajas Airport (LEMD)
Time Latitude Longitude Altitude Speed Heading
2026-05-06 15:54 32.69539 -16.77392 177 ft 0 kts 138°
2026-05-06 16:36 32.69547 -16.77400 176 ft 2 kts 138°
2026-05-06 16:36 32.69559 -16.77413 176 ft 2 kts 138°
2026-05-06 16:36 32.69572 -16.77427 176 ft 2 kts 138°
2026-05-06 16:37 32.69585 -16.77441 176 ft 2 kts 138°
2026-05-06 16:37 32.69599 -16.77450 176 ft 2 kts 171°
2026-05-06 16:37 32.69616 -16.77449 176 ft 2 kts 208°
2026-05-06 16:37 32.69628 -16.77438 176 ft 0 kts 228°
2026-05-06 16:40 32.69627 -16.77439 176 ft 2 kts 228°
2026-05-06 16:40 32.69601 -16.77471 176 ft 0 kts 226°
2026-05-06 16:40 32.69599 -16.77474 176 ft 2 kts 226°
2026-05-06 16:41 32.69593 -16.77481 176 ft 2 kts 226°
2026-05-06 16:41 32.69581 -16.77496 176 ft 0 kts 226°
2026-05-06 16:41 32.69580 -16.77498 176 ft 0 kts 226°
2026-05-06 16:41 32.69577 -16.77501 190 ft 2 kts 226°
2026-05-06 16:42 32.69554 -16.77530 176 ft 7 kts 226°
2026-05-06 16:42 32.69518 -16.77576 176 ft 8 kts 227°
2026-05-06 16:42 32.69478 -16.77625 176 ft 8 kts 221°
2026-05-06 16:42 32.69430 -16.77611 176 ft 8 kts 140°
2026-05-06 16:43 32.69415 -16.77596 176 ft 0 kts 139°
2026-05-06 16:43 32.69413 -16.77594 176 ft 0 kts 139°
2026-05-06 16:45 32.69420 -16.77601 176 ft 2 kts 139°
2026-05-06 16:45 32.69433 -16.77614 176 ft 2 kts 139°
2026-05-06 16:45 32.69446 -16.77628 176 ft 2 kts 139°
2026-05-06 16:45 32.69460 -16.77639 176 ft 2 kts 184°
2026-05-06 16:46 32.69474 -16.77631 176 ft 2 kts 223°
2026-05-06 16:46 32.69475 -16.77630 176 ft 0 kts 223°
2026-05-06 16:48 32.69472 -16.77634 176 ft 5 kts 223°
2026-05-06 16:48 32.69416 -16.77701 176 ft 14 kts 226°
2026-05-06 16:48 32.69346 -16.77788 176 ft 15 kts 226°
2026-05-06 16:49 32.69292 -16.77867 176 ft 5 kts 251°
2026-05-06 16:49 32.69292 -16.77871 176 ft 0 kts 258°
2026-05-06 16:51 32.69290 -16.77882 176 ft 6 kts 260°
2026-05-06 16:51 32.69288 -16.77986 176 ft 19 kts 267°
2026-05-06 16:51 32.69212 -16.78121 176 ft 22 kts 225°
2026-05-06 16:51 32.69099 -16.78255 176 ft 24 kts 225°
2026-05-06 16:52 32.68973 -16.78395 176 ft 19 kts 204°
2026-05-06 16:52 32.68891 -16.78436 176 ft 11 kts 248°
2026-05-06 16:52 32.68932 -16.78449 176 ft 9 kts 52°
2026-05-06 16:52 32.68950 -16.78427 176 ft 0 kts 45°
2026-05-06 16:53 32.69138 -16.78208 176 ft 74 kts 44°
2026-05-06 16:53 32.69650 -16.77608 176 ft 130 kts 45°
2026-05-06 16:54 32.70387 -16.76735 392 ft 158 kts 41°
2026-05-06 16:54 32.71086 -16.75736 1107 ft 160 kts 61°
2026-05-06 16:54 32.71300 -16.74419 1811 ft 173 kts 95°
2026-05-06 16:54 32.70899 -16.72978 2227 ft 196 kts 111°
2026-05-06 16:55 32.70368 -16.71412 2552 ft 219 kts 109°
2026-05-06 16:55 32.69778 -16.69640 2901 ft 243 kts 108°
2026-05-06 16:55 32.69189 -16.67852 3417 ft 262 kts 106°
2026-05-06 16:55 32.68512 -16.65795 4307 ft 273 kts 108°
2026-05-06 16:56 32.67816 -16.63677 5171 ft 278 kts 109°
2026-05-06 16:56 32.67108 -16.61520 5963 ft 284 kts 110°
2026-05-06 16:56 32.66387 -16.59320 6727 ft 288 kts 111°
2026-05-06 16:56 32.65846 -16.57010 7400 ft 292 kts 93°
2026-05-06 16:57 32.66003 -16.54631 8186 ft 289 kts 72°
2026-05-06 16:57 32.66837 -16.52485 8987 ft 285 kts 51°
2026-05-06 16:57 32.68180 -16.50778 9800 ft 283 kts 40°
2026-05-06 16:57 32.69617 -16.49161 10388 ft 293 kts 40°
2026-05-06 16:58 32.71136 -16.47453 10585 ft 316 kts 40°
2026-05-06 16:58 32.72786 -16.45593 10730 ft 339 kts 41°
2026-05-06 16:58 32.74535 -16.43612 11066 ft 353 kts 41°
2026-05-06 16:58 32.76325 -16.41569 11644 ft 359 kts 41°
2026-05-06 16:59 32.78139 -16.39491 12269 ft 363 kts 41°
2026-05-06 16:59 32.79967 -16.37389 12906 ft 368 kts 41°
2026-05-06 16:59 32.81818 -16.35262 13529 ft 373 kts 41°
2026-05-06 16:59 32.83695 -16.33109 14121 ft 377 kts 41°
2026-05-06 17:00 32.85571 -16.30962 14673 ft 381 kts 41°
2026-05-06 17:00 32.87489 -16.28767 15251 ft 384 kts 41°
2026-05-06 17:00 32.89421 -16.26551 15818 ft 387 kts 41°
2026-05-06 17:00 32.91365 -16.24317 16383 ft 390 kts 41°
2026-05-06 17:01 32.93324 -16.22062 16927 ft 393 kts 41°
2026-05-06 17:01 32.95300 -16.19789 17471 ft 396 kts 40°
2026-05-06 17:01 32.97293 -16.17497 18006 ft 399 kts 40°
2026-05-06 17:01 32.99273 -16.15221 18517 ft 402 kts 40°
2026-05-06 17:02 33.01292 -16.12896 18987 ft 404 kts 40°
2026-05-06 17:02 33.03318 -16.10563 19480 ft 406 kts 40°
2026-05-06 17:02 33.05351 -16.08218 19971 ft 408 kts 40°
2026-05-06 17:02 33.07393 -16.05860 20450 ft 409 kts 40°
2026-05-06 17:03 33.09446 -16.03488 20921 ft 411 kts 40°
2026-05-06 17:03 33.11506 -16.01106 21396 ft 412 kts 40°
2026-05-06 17:03 33.13570 -15.98718 21850 ft 415 kts 40°
2026-05-06 17:03 33.15659 -15.96303 22182 ft 420 kts 39°
2026-05-06 17:04 33.17768 -15.93866 22595 ft 423 kts 39°
2026-05-06 17:04 33.19887 -15.91412 23063 ft 424 kts 39°
2026-05-06 17:04 33.22012 -15.88948 23487 ft 426 kts 39°
2026-05-06 17:04 33.24115 -15.86505 23866 ft 428 kts 39°
2026-05-06 17:05 33.26254 -15.84017 24224 ft 429 kts 39°
2026-05-06 17:05 33.28407 -15.81516 24597 ft 430 kts 39°
2026-05-06 17:05 33.30560 -15.79017 24960 ft 432 kts 39°
2026-05-06 17:05 33.32720 -15.76511 25336 ft 433 kts 39°
2026-05-06 17:06 33.34884 -15.73996 25746 ft 435 kts 39°
2026-05-06 17:06 33.37029 -15.71499 26117 ft 436 kts 39°
2026-05-06 17:06 33.39230 -15.68931 26466 ft 437 kts 39°
2026-05-06 17:06 33.41382 -15.66419 26790 ft 438 kts 39°
2026-05-06 17:07 33.43569 -15.63886 27126 ft 439 kts 38°
2026-05-06 17:07 33.45795 -15.61363 27343 ft 442 kts 38°
2026-05-06 17:07 33.48050 -15.58844 27607 ft 444 kts 37°
2026-05-06 17:07 33.50323 -15.56316 27925 ft 445 kts 37°
2026-05-06 17:08 33.52595 -15.53786 28227 ft 446 kts 37°
2026-05-06 17:08 33.54868 -15.51241 28532 ft 447 kts 37°
2026-05-06 17:08 33.57138 -15.48685 28870 ft 447 kts 37°
2026-05-06 17:08 33.59397 -15.46129 29314 ft 445 kts 37°
2026-05-06 17:09 33.61623 -15.43609 29752 ft 443 kts 37°
2026-05-06 17:09 33.63858 -15.41073 30184 ft 441 kts 37°
2026-05-06 17:09 33.66087 -15.38543 30539 ft 440 kts 37°
2026-05-06 17:09 33.68311 -15.36023 30843 ft 439 kts 37°
2026-05-06 17:10 33.70534 -15.33502 31129 ft 439 kts 37°
2026-05-06 17:10 33.72759 -15.30980 31411 ft 439 kts 37°
2026-05-06 17:10 33.74981 -15.28460 31707 ft 439 kts 37°
2026-05-06 17:10 33.77206 -15.25937 31987 ft 439 kts 37°
2026-05-06 17:11 33.79432 -15.23412 32306 ft 439 kts 37°
2026-05-06 17:11 33.81621 -15.20926 32634 ft 438 kts 37°
2026-05-06 17:11 33.83837 -15.18407 32917 ft 438 kts 37°
2026-05-06 17:11 33.86049 -15.15886 33194 ft 438 kts 37°
2026-05-06 17:12 33.88268 -15.13359 33470 ft 438 kts 38°
2026-05-06 17:12 33.90486 -15.10832 33760 ft 438 kts 38°
2026-05-06 17:12 33.92700 -15.08307 34029 ft 438 kts 38°
2026-05-06 17:12 33.94912 -15.05780 34277 ft 438 kts 38°
2026-05-06 17:13 33.97124 -15.03247 34531 ft 438 kts 38°
2026-05-06 17:13 33.99304 -15.00748 34785 ft 437 kts 37°
2026-05-06 17:13 34.01508 -14.98221 35051 ft 436 kts 37°
2026-05-06 17:13 34.03705 -14.95698 35313 ft 435 kts 37°
2026-05-06 17:14 34.05898 -14.93177 35578 ft 435 kts 37°
2026-05-06 17:14 34.08096 -14.90649 35758 ft 437 kts 37°
2026-05-06 17:14 34.10295 -14.88126 35973 ft 436 kts 37°
2026-05-06 17:15 34.14708 -14.83064 36087 ft 437 kts 37°
2026-05-06 17:15 34.19088 -14.78026 36081 ft 437 kts 37°
2026-05-06 17:16 34.23494 -14.72939 36081 ft 437 kts 37°
2026-05-06 17:16 34.27895 -14.67855 36088 ft 437 kts 37°
2026-05-06 17:17 34.32264 -14.62802 36080 ft 437 kts 37°
2026-05-06 17:17 34.36660 -14.57708 36081 ft 437 kts 37°
2026-05-06 17:18 34.41059 -14.52610 36099 ft 437 kts 37°
2026-05-06 17:18 34.45439 -14.47537 36076 ft 438 kts 37°
2026-05-06 17:19 34.49818 -14.42427 36070 ft 438 kts 37°
2026-05-06 17:19 34.54222 -14.37290 36067 ft 439 kts 37°
2026-05-06 17:20 34.58634 -14.32143 36066 ft 439 kts 37°
2026-05-06 17:20 34.63012 -14.27033 36068 ft 439 kts 38°
2026-05-06 17:21 34.67419 -14.21864 36088 ft 439 kts 37°
2026-05-06 17:21 34.71786 -14.16751 36086 ft 440 kts 38°
2026-05-06 17:22 34.76182 -14.11594 36070 ft 441 kts 38°
2026-05-06 17:22 34.80612 -14.06390 36064 ft 442 kts 38°
2026-05-06 17:23 34.85007 -14.01208 36061 ft 442 kts 38°
2026-05-06 17:23 34.89432 -13.95981 36062 ft 443 kts 38°
2026-05-06 17:24 34.93863 -13.90746 36065 ft 443 kts 38°
2026-05-06 17:24 34.98257 -13.85538 36106 ft 443 kts 38°
2026-05-06 17:25 35.02688 -13.80281 36072 ft 444 kts 38°
2026-05-06 17:25 35.07124 -13.75020 36058 ft 444 kts 38°
2026-05-06 17:26 35.11542 -13.69775 36055 ft 445 kts 38°
2026-05-06 17:26 35.15986 -13.64477 36055 ft 446 kts 38°
2026-05-06 17:27 35.20394 -13.59213 36054 ft 446 kts 38°
2026-05-06 17:27 35.24835 -13.53896 36056 ft 446 kts 38°
2026-05-06 17:28 35.29281 -13.48570 36081 ft 446 kts 38°
2026-05-06 17:28 35.33702 -13.43277 36054 ft 448 kts 38°
2026-05-06 17:29 35.38177 -13.37920 36048 ft 449 kts 38°
2026-05-06 17:29 35.42626 -13.32584 36044 ft 449 kts 39°
2026-05-06 17:30 35.47088 -13.27192 36047 ft 450 kts 39°
2026-05-06 17:30 35.51526 -13.21824 36057 ft 450 kts 39°
2026-05-06 17:31 35.55992 -13.16428 36069 ft 450 kts 38°
2026-05-06 17:31 35.60454 -13.11025 36079 ft 450 kts 39°
2026-05-06 17:32 35.64894 -13.05638 36054 ft 451 kts 39°
2026-05-06 17:32 35.69374 -13.00196 36047 ft 452 kts 39°
2026-05-06 17:33 35.73822 -12.94787 36045 ft 452 kts 39°
2026-05-06 17:33 35.78302 -12.89329 36045 ft 452 kts 39°
2026-05-06 17:34 35.82782 -12.83853 36065 ft 453 kts 39°
2026-05-06 17:34 35.87227 -12.78418 36064 ft 453 kts 39°
2026-05-06 17:35 35.91703 -12.72943 36053 ft 454 kts 39°
2026-05-06 17:35 35.96198 -12.67425 36044 ft 455 kts 40°
2026-05-06 17:36 36.02910 -12.59158 36039 ft 456 kts 40°
2026-05-06 17:36 36.07255 -12.53405 36045 ft 459 kts 45°
2026-05-06 17:37 36.11329 -12.47346 36051 ft 460 kts 45°
2026-05-06 17:37 36.15420 -12.41229 36046 ft 460 kts 45°
2026-05-06 17:38 36.19488 -12.35162 36038 ft 461 kts 45°
2026-05-06 17:38 36.23595 -12.29039 36028 ft 462 kts 46°
2026-05-06 17:39 36.27675 -12.22929 36029 ft 463 kts 46°
2026-05-06 17:39 36.31780 -12.16768 36028 ft 463 kts 46°
2026-05-06 17:40 36.35883 -12.10594 36030 ft 464 kts 46°
2026-05-06 17:40 36.39990 -12.04407 36057 ft 464 kts 46°
2026-05-06 17:41 36.44085 -11.98235 36047 ft 465 kts 46°
2026-05-06 17:41 36.47499 -11.93077 36039 ft 465 kts 46°
2026-05-06 17:42 36.51610 -11.86840 36036 ft 466 kts 46°
2026-05-06 17:42 36.55702 -11.80624 36034 ft 466 kts 46°
2026-05-06 17:43 36.59807 -11.74392 36025 ft 466 kts 46°
2026-05-06 17:43 36.63929 -11.68113 36027 ft 466 kts 46°
2026-05-06 17:44 36.68037 -11.61845 36040 ft 466 kts 46°
2026-05-06 17:44 36.72118 -11.55606 36033 ft 467 kts 46°
2026-05-06 17:45 36.76207 -11.49349 36028 ft 467 kts 46°
2026-05-06 17:45 36.80315 -11.43049 36027 ft 467 kts 46°
2026-05-06 17:46 36.84426 -11.36737 36027 ft 467 kts 46°
2026-05-06 17:46 36.88504 -11.30451 36041 ft 467 kts 47°
2026-05-06 17:47 36.92599 -11.24129 36027 ft 468 kts 47°
2026-05-06 17:47 36.96684 -11.17825 36023 ft 469 kts 47°
2026-05-06 17:48 37.00792 -11.11471 36010 ft 469 kts 47°
2026-05-06 17:48 37.04899 -11.05100 36018 ft 469 kts 47°
2026-05-06 17:49 37.08981 -10.98744 36009 ft 470 kts 47°
2026-05-06 17:49 37.13077 -10.92359 36019 ft 470 kts 47°
2026-05-06 17:50 37.17180 -10.85956 36004 ft 471 kts 48°
2026-05-06 17:50 37.21267 -10.79572 35999 ft 471 kts 48°
2026-05-06 17:51 37.25355 -10.73171 36007 ft 472 kts 48°
2026-05-06 17:51 37.29458 -10.66729 36004 ft 472 kts 48°
2026-05-06 17:52 37.33570 -10.60258 36007 ft 472 kts 48°
2026-05-06 17:52 37.37648 -10.53835 35999 ft 473 kts 48°
2026-05-06 17:53 37.41766 -10.47357 35997 ft 474 kts 48°
2026-05-06 17:53 37.45862 -10.40890 35996 ft 474 kts 49°
2026-05-06 17:54 37.49957 -10.34393 35995 ft 474 kts 49°
2026-05-06 17:54 37.54064 -10.27866 36005 ft 475 kts 49°
2026-05-06 17:55 37.58180 -10.21315 35997 ft 475 kts 49°
2026-05-06 17:55 37.62268 -10.14797 35990 ft 476 kts 49°
2026-05-06 17:56 37.66388 -10.08212 35981 ft 476 kts 49°
2026-05-06 17:56 37.70482 -10.01656 35985 ft 477 kts 49°
2026-05-06 17:57 37.74569 -9.95104 35979 ft 477 kts 49°
2026-05-06 17:57 37.78690 -9.88496 36001 ft 477 kts 49°
2026-05-06 17:58 37.82773 -9.81925 35978 ft 478 kts 50°
2026-05-06 17:58 37.86884 -9.75287 35975 ft 479 kts 50°
2026-05-06 17:59 37.90999 -9.68632 35978 ft 479 kts 50°
2026-05-06 17:59 37.95080 -9.62011 35971 ft 479 kts 50°
2026-05-06 18:00 37.99191 -9.55346 35971 ft 479 kts 50°
2026-05-06 18:00 38.03301 -9.48664 35967 ft 479 kts 50°
2026-05-06 18:01 38.07392 -9.41987 35964 ft 480 kts 50°
2026-05-06 18:01 38.11504 -9.35280 35952 ft 481 kts 50°
2026-05-06 18:02 38.15524 -9.28708 35953 ft 481 kts 50°
2026-05-06 18:02 38.19627 -9.21963 35947 ft 481 kts 50°
2026-05-06 18:03 38.23702 -9.15262 35949 ft 482 kts 50°
2026-05-06 18:03 38.27804 -9.08503 35934 ft 482 kts 51°
2026-05-06 18:04 38.31909 -9.01731 35952 ft 483 kts 51°
2026-05-06 18:04 38.36028 -8.94933 35940 ft 484 kts 51°
2026-05-06 18:05 38.40114 -8.88162 35932 ft 484 kts 51°
2026-05-06 18:05 38.44224 -8.81330 35933 ft 484 kts 51°
2026-05-06 18:06 38.48311 -8.74531 35921 ft 485 kts 51°
2026-05-06 18:06 38.52410 -8.67697 35914 ft 485 kts 51°
2026-05-06 18:07 38.56523 -8.60825 35905 ft 485 kts 51°
2026-05-06 18:07 38.60600 -8.53996 35923 ft 486 kts 51°
2026-05-06 18:08 38.64704 -8.47109 35918 ft 486 kts 51°
2026-05-06 18:08 38.68754 -8.40296 35916 ft 486 kts 51°
2026-05-06 18:09 38.72863 -8.33367 35899 ft 486 kts 51°
2026-05-06 18:09 38.76963 -8.26439 35897 ft 486 kts 51°
2026-05-06 18:10 38.81031 -8.19562 35899 ft 486 kts 51°
2026-05-06 18:10 38.85101 -8.12663 35907 ft 486 kts 51°
2026-05-06 18:11 38.89187 -8.05716 35901 ft 486 kts 52°
2026-05-06 18:11 38.93269 -7.98756 35892 ft 486 kts 52°
2026-05-06 18:12 38.97313 -7.91861 35890 ft 486 kts 52°
2026-05-06 18:12 39.01387 -7.84885 35876 ft 486 kts 52°
2026-05-06 18:13 39.05425 -7.77955 35877 ft 486 kts 52°
2026-05-06 18:13 39.09486 -7.70982 35876 ft 486 kts 52°
2026-05-06 18:14 39.13546 -7.63985 35897 ft 486 kts 52°
2026-05-06 18:14 39.17593 -7.57000 35879 ft 486 kts 52°
2026-05-06 18:15 39.21615 -7.50048 35872 ft 486 kts 52°
2026-05-06 18:15 39.25656 -7.43046 35875 ft 486 kts 52°
2026-05-06 18:16 39.29687 -7.36028 35869 ft 486 kts 52°
2026-05-06 18:16 39.33685 -7.29042 35864 ft 486 kts 53°
2026-05-06 18:17 39.37564 -7.21874 35883 ft 486 kts 55°
2026-05-06 18:17 39.41325 -7.14585 35876 ft 486 kts 55°
2026-05-06 18:18 39.45072 -7.07347 35873 ft 486 kts 54°
2026-05-06 18:18 39.48888 -7.00112 35869 ft 486 kts 54°
2026-05-06 18:19 39.52718 -6.92882 35854 ft 486 kts 54°
2026-05-06 18:19 39.56506 -6.85673 35855 ft 486 kts 54°
2026-05-06 18:20 39.60286 -6.78414 35862 ft 485 kts 54°
2026-05-06 18:20 39.64050 -6.71183 35873 ft 485 kts 54°
2026-05-06 18:21 39.67831 -6.63918 35864 ft 485 kts 54°
2026-05-06 18:21 39.71606 -6.56644 35863 ft 485 kts 54°
2026-05-06 18:22 39.75369 -6.49362 35860 ft 484 kts 54°
2026-05-06 18:22 39.78865 -6.41923 35855 ft 485 kts 65°
2026-05-06 18:23 39.80758 -6.33513 35858 ft 485 kts 83°
2026-05-06 18:23 39.81531 -6.24837 35849 ft 485 kts 84°
2026-05-06 18:24 39.82308 -6.16114 35849 ft 485 kts 84°
2026-05-06 18:24 39.83080 -6.07383 35849 ft 485 kts 84°
2026-05-06 18:25 39.83834 -5.98698 35847 ft 485 kts 84°
2026-05-06 18:25 39.84591 -5.89959 35857 ft 485 kts 84°
2026-05-06 18:26 39.85333 -5.81290 35852 ft 485 kts 84°
2026-05-06 18:26 39.86078 -5.72553 35853 ft 485 kts 84°
2026-05-06 18:27 39.86818 -5.63825 35848 ft 484 kts 84°
2026-05-06 18:27 39.87536 -5.55092 35868 ft 484 kts 84°
2026-05-06 18:28 39.88134 -5.47854 35868 ft 484 kts 84°
2026-05-06 18:28 39.88852 -5.39138 35861 ft 484 kts 84°
2026-05-06 18:29 39.89558 -5.30423 35861 ft 484 kts 84°
2026-05-06 18:29 39.90262 -5.21701 35860 ft 484 kts 84°
2026-05-06 18:30 39.90960 -5.13038 35878 ft 483 kts 84°
2026-05-06 18:30 39.91307 -5.08679 35695 ft 483 kts 84°
2026-05-06 18:30 39.91651 -5.04308 34427 ft 488 kts 85°
2026-05-06 18:31 39.91995 -4.99872 32957 ft 494 kts 85°
2026-05-06 18:31 39.92337 -4.95408 31523 ft 496 kts 85°
2026-05-06 18:31 39.92683 -4.90923 30103 ft 498 kts 85°
2026-05-06 18:31 39.93030 -4.86428 28436 ft 499 kts 85°
2026-05-06 18:32 39.93377 -4.81927 27137 ft 494 kts 85°
2026-05-06 18:32 39.93712 -4.77558 26462 ft 475 kts 85°
2026-05-06 18:32 39.94031 -4.73397 25730 ft 460 kts 85°
2026-05-06 18:32 39.94377 -4.69315 25141 ft 447 kts 81°
2026-05-06 18:33 39.95089 -4.65305 24592 ft 456 kts 76°
2026-05-06 18:33 39.95862 -4.61282 24049 ft 456 kts 76°
2026-05-06 18:33 39.96626 -4.57264 23513 ft 456 kts 77°
2026-05-06 18:33 39.97378 -4.53266 22889 ft 452 kts 77°
2026-05-06 18:34 39.98117 -4.49305 22257 ft 448 kts 77°
2026-05-06 18:34 39.98836 -4.45427 21653 ft 443 kts 77°
2026-05-06 18:34 39.99557 -4.41540 21053 ft 438 kts 77°
2026-05-06 18:34 40.00277 -4.37674 20453 ft 435 kts 77°
2026-05-06 18:35 40.00990 -4.33859 19887 ft 431 kts 77°
2026-05-06 18:35 40.01698 -4.30063 19322 ft 428 kts 77°
2026-05-06 18:35 40.02397 -4.26303 18769 ft 424 kts 77°
2026-05-06 18:35 40.03087 -4.22568 18226 ft 421 kts 77°
2026-05-06 18:36 40.03759 -4.18909 17618 ft 419 kts 77°
2026-05-06 18:36 40.04435 -4.15227 17008 ft 417 kts 77°
2026-05-06 18:36 40.05111 -4.11544 16414 ft 414 kts 77°
2026-05-06 18:36 40.05781 -4.07907 15827 ft 412 kts 77°
2026-05-06 18:37 40.06447 -4.04289 15249 ft 409 kts 77°
2026-05-06 18:37 40.07108 -4.00684 14683 ft 407 kts 77°
2026-05-06 18:37 40.07763 -3.97104 14127 ft 404 kts 77°
2026-05-06 18:37 40.08406 -3.93571 13562 ft 401 kts 77°
2026-05-06 18:38 40.09048 -3.90035 12953 ft 398 kts 77°
2026-05-06 18:38 40.09686 -3.86527 12349 ft 395 kts 77°
2026-05-06 18:38 40.10321 -3.83038 11739 ft 392 kts 77°
2026-05-06 18:38 40.10946 -3.79591 11178 ft 388 kts 77°
2026-05-06 18:39 40.11563 -3.76180 10604 ft 384 kts 77°
2026-05-06 18:39 40.12175 -3.72788 10058 ft 380 kts 77°
2026-05-06 18:39 40.12778 -3.69443 9470 ft 376 kts 77°
2026-05-06 18:40 40.13953 -3.62893 8288 ft 367 kts 77°
2026-05-06 18:40 40.14528 -3.59662 7702 ft 362 kts 77°
2026-05-06 18:40 40.15094 -3.56474 7130 ft 357 kts 77°
2026-05-06 18:40 40.15651 -3.53328 6568 ft 352 kts 77°
2026-05-06 18:41 40.16194 -3.50263 6095 ft 345 kts 77°
2026-05-06 18:41 40.16821 -3.47312 5951 ft 328 kts 66°
2026-05-06 18:41 40.18015 -3.44884 5918 ft 310 kts 47°
2026-05-06 18:41 40.19543 -3.43010 5779 ft 290 kts 42°
2026-05-06 18:42 40.21023 -3.41365 5649 ft 266 kts 34°
2026-05-06 18:42 40.22589 -3.40181 5272 ft 255 kts 30°
2026-05-06 18:42 40.24127 -3.39106 4758 ft 252 kts 23°
2026-05-06 18:42 40.25829 -3.38526 4205 ft 250 kts
2026-05-06 18:43 40.27519 -3.38655 3988 ft 237 kts 352°
2026-05-06 18:43 40.29123 -3.38954 3975 ft 235 kts 352°
2026-05-06 18:43 40.30635 -3.39606 3979 ft 224 kts 330°
2026-05-06 18:43 40.31871 -3.40786 3976 ft 215 kts 323°
2026-05-06 18:44 40.33012 -3.41937 3997 ft 198 kts 323°
2026-05-06 18:44 40.34064 -3.42998 3974 ft 183 kts 323°
2026-05-06 18:44 40.35025 -3.43968 3968 ft 171 kts 322°
2026-05-06 18:44 40.35951 -3.44903 3989 ft 166 kts 322°
2026-05-06 18:45 40.36842 -3.45803 3987 ft 159 kts 322°
2026-05-06 18:45 40.37714 -3.46684 3970 ft 158 kts 322°
2026-05-06 18:45 40.38578 -3.47559 3845 ft 157 kts 322°
2026-05-06 18:45 40.39444 -3.48435 3668 ft 156 kts 322°
2026-05-06 18:46 40.40298 -3.49299 3481 ft 155 kts 322°
2026-05-06 18:46 40.41150 -3.50161 3284 ft 154 kts 322°
2026-05-06 18:46 40.41999 -3.51021 3080 ft 154 kts 322°
2026-05-06 18:46 40.42842 -3.51875 2838 ft 151 kts 322°
2026-05-06 18:47 40.43668 -3.52705 2642 ft 149 kts 323°
2026-05-06 18:47 40.44482 -3.53523 2444 ft 149 kts 323°
2026-05-06 18:47 40.45299 -3.54360 2223 ft 149 kts 322°
2026-05-06 18:47 40.46122 -3.55186 2047 ft 149 kts 322°
2026-05-06 18:48 40.46928 -3.56014 1977 ft 137 kts 323°
2026-05-06 18:48 40.47555 -3.56650 1995 ft 89 kts 322°
2026-05-06 18:48 40.47947 -3.57050 2001 ft 62 kts 322°
2026-05-06 18:48 40.48115 -3.57284 2005 ft 17 kts 305°
2026-05-06 18:49 40.48153 -3.57367 2003 ft 6 kts 296°
2026-05-06 18:49 40.48174 -3.57424 2003 ft 8 kts 295°
2026-05-06 18:49 40.48185 -3.57456 2002 ft 1 kts 292°
2026-05-06 18:49 40.48189 -3.57468 2002 ft 3 kts 292°
2026-05-06 18:50 40.48204 -3.57518 2000 ft 9 kts 292°
2026-05-06 18:50 40.48241 -3.57610 1997 ft 14 kts 304°
2026-05-06 18:50 40.48329 -3.57707 1994 ft 19 kts 322°
2026-05-06 18:50 40.48369 -3.57839 1991 ft 17 kts 287°
2026-05-06 18:51 40.48464 -3.57941 1994 ft 18 kts 327°
2026-05-06 18:51 40.48512 -3.58061 2003 ft 15 kts 269°
2026-05-06 18:51 40.48511 -3.58220 2009 ft 21 kts 270°
2026-05-06 18:51 40.48510 -3.58425 2016 ft 22 kts 270°
2026-05-06 18:52 40.48510 -3.58626 2022 ft 22 kts 271°
2026-05-06 18:52 40.48536 -3.58808 2027 ft 8 kts 333°
2026-05-06 18:52 40.48605 -3.58809 2022 ft 15 kts 360°
2026-05-06 18:52 40.48724 -3.58810 2030 ft 19 kts 360°
2026-05-06 18:53 40.48800 -3.58857 2026 ft 11 kts 273°
2026-05-06 18:53 40.48798 -3.58953 2022 ft 5 kts 270°
2026-05-06 18:53 40.48798 -3.58962 2022 ft 0 kts 269°